Location: *
(58.7167°N, 26.1833°E)
Time: 03:32:58
(UTC+00:00)

Cosmos 2251 Rocket - Pass Details

Date: 25 August 2019
Orbit: 764 x 792 km, 74.0° (Epoch: 21 September)

Event Time Altitude Azimuth Distance (km) Brightness Sun altitude
Rises 20:39:27 0° 328° (NNW) 3,282 8.5 -17.9°
Reaches altitude 10° 20:41:51 10° 329° (NNW) 2,354 7.3 -18.0°
Maximum altitude 20:47:13 88° 242° (WSW) 797 3.5 -18.3°
Enters shadow 20:49:39 34° 152° (SSE) 1,282 4.1 -18.4°
